Osceola Municipal, IA

11:11 AM CDT on October 20, 2017 (GMT -0500)
Osceola Municipal

Weather History for KI75 - April, 2014

Change the Weather History Date:

Wednesday, April 30, 2014

  Actual Average (KCNC) Record (KCNC)
Temperature  
Mean Temperature 42 °F -  
Max Temperature 45 °F 69 °F 88 °F (1965)
Min Temperature 38 °F 44 °F 29 °F (1989)
Degree Days  
Heating Degree Days 24    
Moisture  
Dew Point 38 °F    
Average Humidity 85    
Maximum Humidity 90    
Minimum Humidity 76    
Precipitation  
Precipitation 0.02 in - - ()
Sea Level Pressure  
Sea Level Pressure 29.81 in    
Wind  
Wind Speed 13 mph (WNW)    
Max Wind Speed 22 mph    
Max Gust Speed 26 mph    
Visibility 10 miles    
Events Rain    
Averages and records for this station are not official NWS values.
T = Trace of Precipitation, MM = Missing Value Source: NWS Daily Summary

Daily Weather History Graph

Daily Weather History Graph

Search for Another Location

Airport or City:

Trip Planner

Search our weather history database for the weather conditions in past years. The results will help you decide how hot, cold, wet, or windy it might be!

Date:

Astronomy

Apr. 30, 2014 Rise Set
Actual Time 6:13 AM CDT 8:10 PM CDT
Civil Twilight 5:44 AM CDT 8:40 PM CDT
Nautical Twilight 5:07 AM CDT 9:16 PM CDT
Astronomical Twilight 4:28 AM CDT 9:56 PM CDT
Moon 7:15 AM CDT (4/30) 9:50 PM CDT (4/30)
Length of Visible Light 14h 56m
Length of Day
13h 56m
New Moon, 2% of the Moon is Illuminated
Apr 30
New Moon
May 6
First Quarter
May 14
Full
May 21
Last Quarter
May 28
New

Hourly Weather History & Observations

Time (CDT) Temp. Windchill Dew Point Humidity Pressure Visibility Wind Dir Wind Speed Gust Speed Precip Events Conditions
12:15 AM 39.2 °F 33.0 °F 36.0 °F 88% 29.76 in 10.0 mi WNW 9.2 mph - N/A   Mostly Cloudy
12:35 AM 39.2 °F 33.0 °F 36.5 °F 90% 29.76 in 10.0 mi WNW 9.2 mph - N/A   Overcast
12:55 AM 39.2 °F 33.0 °F 36.5 °F 90% 29.77 in 10.0 mi WNW 9.2 mph - N/A   Overcast
1:15 AM 39.6 °F 32.5 °F 36.3 °F 88% 29.77 in 10.0 mi WNW 11.5 mph - N/A   Overcast
1:35 AM 39.6 °F 32.5 °F 36.5 °F 89% 29.76 in 10.0 mi West 11.5 mph - N/A   Overcast
1:55 AM 39.6 °F 33.0 °F 36.1 °F 88% 29.76 in 10.0 mi NW 10.4 mph - N/A   Light Drizzle
2:15 AM 39.0 °F 32.3 °F 36.3 °F 90% 29.76 in 10.0 mi WNW 10.4 mph - N/A Rain Light Rain
2:35 AM 39.4 °F 31.4 °F 35.6 °F 86% 29.76 in 10.0 mi WNW 13.8 mph - N/A   Overcast
2:55 AM 39.4 °F 32.3 °F 34.7 °F 83% 29.77 in 10.0 mi NW 11.5 mph 15.0 mph N/A   Overcast
3:15 AM 39.2 °F 30.8 °F 33.3 °F 79% 29.78 in 10.0 mi WNW 15.0 mph 20.7 mph N/A   Overcast
3:35 AM 38.1 °F 31.7 °F 33.3 °F 83% 29.78 in 10.0 mi WNW 9.2 mph - N/A   Overcast
3:55 AM 38.5 °F 32.1 °F 34.2 °F 84% 29.79 in 10.0 mi West 9.2 mph - N/A   Overcast
4:15 AM 39.2 °F 32.0 °F 34.2 °F 82% 29.79 in 10.0 mi WNW 11.5 mph - N/A   Overcast
4:35 AM 39.2 °F 32.5 °F 34.7 °F 84% 29.78 in 10.0 mi West 10.4 mph - N/A   Overcast
4:55 AM 39.2 °F 32.5 °F 35.1 °F 85% 29.78 in 10.0 mi West 10.4 mph - N/A   Overcast
5:15 AM 39.7 °F 33.2 °F 35.4 °F 85% 29.78 in 10.0 mi West 10.4 mph 16.1 mph N/A   Overcast
5:35 AM 40.1 °F 32.7 °F 36.0 °F 85% 29.78 in 10.0 mi West 12.7 mph 17.3 mph N/A   Overcast
5:55 AM 41.0 °F 33.9 °F 36.5 °F 84% 29.78 in 10.0 mi West 12.7 mph 17.3 mph N/A   Overcast
6:15 AM 41.0 °F 32.8 °F 36.5 °F 84% 29.78 in 10.0 mi WNW 16.1 mph - N/A   Overcast
6:35 AM 41.2 °F 32.7 °F 36.5 °F 83% 29.79 in 10.0 mi WNW 17.3 mph - N/A   Overcast
6:55 AM 41.2 °F 34.1 °F 36.5 °F 83% 29.79 in 10.0 mi WNW 12.7 mph - N/A   Overcast
7:15 AM 41.5 °F 34.6 °F 36.9 °F 83% 29.79 in 10.0 mi West 12.7 mph - N/A   Overcast
7:35 AM 41.7 °F 33.7 °F 36.9 °F 83% 29.79 in 10.0 mi WNW 16.1 mph 20.7 mph N/A   Overcast
7:55 AM 42.3 °F 34.8 °F 37.4 °F 83% 29.79 in 10.0 mi West 15.0 mph 20.7 mph N/A   Overcast
8:15 AM 42.8 °F 35.4 °F 36.9 °F 80% 29.79 in 10.0 mi WNW 15.0 mph 21.9 mph N/A   Overcast
8:35 AM 42.6 °F 35.2 °F 37.2 °F 81% 29.79 in 10.0 mi WNW 15.0 mph 21.9 mph N/A   Overcast
8:55 AM 43.3 °F 36.1 °F 38.1 °F 82% 29.80 in 10.0 mi WNW 15.0 mph 23.0 mph N/A   Overcast
9:15 AM 44.4 °F 37.9 °F 38.8 °F 81% 29.79 in 10.0 mi WNW 13.8 mph 17.3 mph N/A   Overcast
9:35 AM 45.0 °F 37.1 °F 37.9 °F 76% 29.79 in 10.0 mi WNW 19.6 mph 26.5 mph N/A   Overcast
9:55 AM 45.5 °F 38.9 °F 38.7 °F 77% 29.79 in 10.0 mi WNW 15.0 mph 24.2 mph N/A   Overcast
10:15 AM 44.1 °F 37.4 °F 38.7 °F 81% 29.80 in 7.0 mi WNW 13.8 mph 25.3 mph N/A   Light Drizzle
10:35 AM 43.9 °F 36.5 °F 39.4 °F 84% 29.81 in 7.0 mi WNW 16.1 mph 23.0 mph N/A   Overcast
10:55 AM 45.3 °F 37.6 °F 39.2 °F 79% 29.81 in 10.0 mi WNW 19.6 mph 25.3 mph N/A   Overcast
11:15 AM 44.4 °F 37.2 °F 37.6 °F 77% 29.81 in 10.0 mi NW 16.1 mph 21.9 mph N/A   Light Drizzle
11:35 AM 43.9 °F 36.5 °F 38.8 °F 82% 29.82 in 10.0 mi WNW 16.1 mph 20.7 mph N/A Rain Light Rain
11:55 AM 44.2 °F 37.0 °F 39.4 °F 83% 29.82 in 10.0 mi WNW 16.1 mph - N/A   Overcast
12:15 PM 45.0 °F 38.5 °F 38.7 °F 79% 29.82 in 10.0 mi WNW 13.8 mph - N/A   Overcast
12:35 PM 44.8 °F 37.4 °F 38.8 °F 80% 29.82 in 10.0 mi WNW 17.3 mph 20.7 mph N/A Rain Light Rain
12:55 PM 44.6 °F 37.2 °F 40.1 °F 84% 29.82 in 10.0 mi WNW 17.3 mph 23.0 mph N/A   Overcast
1:15 PM 43.7 °F 35.7 °F 38.7 °F 82% 29.83 in 10.0 mi WNW 18.4 mph - N/A Rain Light Rain
1:35 PM 44.8 °F 37.1 °F 39.7 °F 82% 29.83 in 10.0 mi WNW 18.4 mph 23.0 mph N/A   Light Drizzle
1:55 PM 45.1 °F 36.9 °F 40.1 °F 82% 29.83 in 10.0 mi WNW 21.9 mph 25.3 mph N/A Rain Light Rain
2:15 PM 45.1 °F 37.6 °F 40.3 °F 83% 29.84 in 10.0 mi WNW 18.4 mph 21.9 mph N/A   Light Drizzle
2:55 PM 43.9 °F 36.5 °F 38.7 °F 82% 29.85 in 10.0 mi WNW 16.1 mph - N/A   Drizzle
3:15 PM 43.0 °F 36.8 °F 39.2 °F 86% 29.85 in 7.0 mi NW 11.5 mph - N/A Rain Light Rain
3:35 PM 43.0 °F 36.4 °F 38.8 °F 85% 29.85 in 7.0 mi WNW 12.7 mph 17.3 mph 0.01 in Rain Light Rain
3:55 PM 44.2 °F 37.3 °F 40.3 °F 86% 29.85 in 7.0 mi West 15.0 mph - 0.01 in Rain Light Rain
4:15 PM 44.1 °F 35.9 °F 39.6 °F 84% 29.84 in 7.0 mi West 19.6 mph 24.2 mph N/A Rain Rain
4:35 PM 44.4 °F 38.2 °F 40.1 °F 85% 29.84 in 7.0 mi West 12.7 mph 20.7 mph N/A Rain Rain
4:55 PM 43.7 °F 36.3 °F 39.9 °F 87% 29.84 in 7.0 mi West 16.1 mph 25.3 mph 0.01 in   Light Drizzle
5:15 PM 43.5 °F 36.1 °F 39.7 °F 87% 29.84 in 10.0 mi West 16.1 mph 20.7 mph N/A   Light Drizzle
5:35 PM 43.7 °F 36.9 °F 40.1 °F 87% 29.84 in 7.0 mi West 13.8 mph - N/A   Drizzle
5:55 PM 43.2 °F 36.2 °F 39.6 °F 87% 29.84 in 10.0 mi West 13.8 mph 19.6 mph N/A   Light Drizzle
6:15 PM 43.7 °F 37.3 °F 40.1 °F 87% 29.84 in 10.0 mi West 12.7 mph - N/A   Light Drizzle
6:35 PM 44.1 °F 38.1 °F 40.3 °F 87% 29.84 in 10.0 mi West 11.5 mph 19.6 mph N/A   Overcast
6:55 PM 44.2 °F 38.0 °F 40.8 °F 88% 29.84 in 10.0 mi West 12.7 mph - N/A   Light Drizzle
7:15 PM 44.2 °F 36.7 °F 40.3 °F 86% 29.84 in 10.0 mi West 17.3 mph - N/A   Overcast
7:35 PM 43.9 °F 36.8 °F 39.7 °F 85% 29.84 in 10.0 mi West 15.0 mph 20.7 mph N/A Rain Light Rain
7:55 PM 43.7 °F 37.7 °F 40.1 °F 87% 29.84 in 10.0 mi West 11.5 mph - N/A Rain Light Rain
8:15 PM 43.2 °F 36.2 °F 40.1 °F 89% 29.84 in 10.0 mi West 13.8 mph 19.6 mph N/A Rain Light Rain
8:35 PM 43.2 °F 36.2 °F 39.9 °F 88% 29.85 in 10.0 mi West 13.8 mph 20.7 mph N/A   Light Drizzle
9:15 PM 43.0 °F 36.0 °F 39.4 °F 87% 29.86 in 10.0 mi WNW 13.8 mph 20.7 mph N/A   Overcast
9:35 PM 43.0 °F 37.2 °F 39.7 °F 88% 29.86 in 10.0 mi West 10.4 mph - N/A   Overcast
10:15 PM 42.4 °F 35.7 °F 39.4 °F 89% 29.86 in 10.0 mi West 12.7 mph - N/A   Light Drizzle
10:35 PM 42.6 °F 35.6 °F 39.7 °F 90% 29.86 in 10.0 mi West 13.8 mph - N/A Rain Light Rain
10:55 PM 42.4 °F 35.7 °F 39.7 °F 90% 29.86 in 10.0 mi West 12.7 mph - N/A   Drizzle
11:15 PM 42.4 °F 35.7 °F 39.7 °F 90% 29.86 in 10.0 mi West 12.7 mph 17.3 mph N/A   Light Drizzle
11:35 PM 42.3 °F 35.9 °F 39.4 °F 90% 29.86 in 10.0 mi West 11.5 mph 17.3 mph N/A   Light Drizzle
11:55 PM 42.4 °F 36.1 °F 39.4 °F 89% 29.85 in 10.0 mi West 11.5 mph 17.3 mph N/A   Drizzle